Content
SEND FEEDBACK

Daily
Averages
Monthly
Summary
The Gambia

SUKUTA, THE GAMBIA


Home > Africa > The Gambia
Elevation: 85 feet     Latitude: 13 24N     Longitude: 016 42W

WEATHER
 
SELECT A DAY
Number of Records: 128,978;   Date Range: 7/1/96 - 10/29/14
 
SHARE

PRINT THIS DATA

[ ← Previous Day ]
WEATHER ALMANAC - FEBRUARY 13, 2013
[ Next Day → ]
[ °C ]   °F
Weather ElementAverageHighLow
Temperature78.1 °F99 °F (6:00 pm)64.4 °F (8:00 am)
Dewpoint62 °F68 °F (9:00 pm)48.2 °F (3:00 pm)
Humidity65.9 %94 % (1:00 am)19 % (3:00 pm)
Barometer28.59 in29.83 in (8:00 am) (7:00 pm)
Wind Speed3.8 mph11.5 mph (12:00 pm)
Weather ElementAverage
Visibility5.6 mi
Wind DirectionSE (131.7 °)

Weather ElementTotal
Precipitation---
Cooling Degree Days16.7 (Base 65)
Growing Degree Days31.7 (Base 50)
Averaged from 25 records on February 13, 2013
WEATHER CONDITIONS BREAKOUT
WIND DIRECTION BREAKOUT
WEATHER BY HOUR - FEBRUARY 13, 2013
[ °C ]   °F
Local TimeTemperatureDewpointHumidityBarometerVisibilityWind DirectionWind SpeedGust SpeedPrecipitationEventsConditions
12:00 AM69.8 °F66.2 °F88 %29.80 in5.6 miWNW (300°)5.8 mphClear
1:00 AM68.0 °F66.2 °F94 %29.80 in5.6 miCalmClear
2:00 AM68.0 °F64.4 °F88 %29.80 in5.6 miVariable3.5 mphClear
3:00 AM66.2 °F64.4 °F94 %29.77 in5.6 miCalmClear
4:00 AM66.2 °F64.4 °F94 %29.77 in5.6 miCalmClear
5:00 AM66.2 °F64.4 °F94 %29.77 in5.6 miCalmClear
6:00 AM66.2 °F64.4 °F94 %29.77 in5.6 miCalmClear
6:00 AM66.0 °F65.0 °F94 %29.79 in6.0 miCalmMist
7:00 AM66.2 °F64.4 °F94 %29.80 in5.6 miCalmClear
8:00 AM64.4 °F62.6 °F94 %29.83 in5.0 miCalmClear
9:00 AM69.8 °F66.2 °F88 %29.83 in5.6 miCalm
10:00 AM77.0 °F66.2 °F69 %29.83 in5.6 miCalm
12:00 PM89.6 °F55.4 °F31 %5.6 miNorth (360°)11.5 mphClear
1:00 PM91.4 °F60.8 °F36 %29.80 in5.6 miESE (120°)5.8 mphClear
2:00 PM96.8 °F51.8 °F22 %29.77 in5.6 miVariable2.3 mph
3:00 PM96.8 °F48.2 °F19 %29.77 in5.6 miVariable2.3 mphClear
4:00 PM98.6 °F50.0 °F19 %29.74 in5.6 miEast (100°)5.8 mphClear
5:00 PM95.0 °F60.8 °F32 %29.74 in5.6 miNNW (340°)6.9 mph
6:00 PM91.4 °F60.8 °F36 %29.74 in5.6 miWest (280°)9.2 mph
6:00 PM99.0 °F61.0 °F19 %29.75 in6.0 miWest (280°)9.2 mphHaze
7:00 PM82.4 °F57.2 °F42 %29.74 in5.6 miWest (280°)9.2 mph
8:00 PM77.0 °F60.8 °F57 %29.77 in5.6 miWest (270°)4.6 mph
9:00 PM75.2 °F68.0 °F78 %29.77 in5.6 miWest (270°)5.8 mph
10:00 PM73.4 °F68.0 °F83 %29.77 in5.6 miWest (270°)8.1 mph
11:00 PM71.6 °F68.0 °F88 %29.80 in5.6 miWNW (290°)5.8 mphClear
Hourly data recorded from GBYD, located miles away from Sukuta, The Gambia







STORIES FROM OUR PARTNERS